Selinsgrove, PA

7:59 PM EST on December 06, 2019 (GMT -0500)
Penn Valley

Weather History for KSEG - August, 2019

Change the Weather History Date:

Monday, August 26, 2019

  Actual Average (KIPT) Record (KIPT)
Temperature  
Mean Temperature 64 °F -  
Max Temperature 75 °F 78 °F 98 °F (1948)
Min Temperature 52 °F 58 °F 42 °F (1944)
Degree Days  
Heating Degree Days 2    
Growing Degree Days 14 (Base 50)    
Moisture  
Dew Point 54 °F    
Average Humidity 78    
Maximum Humidity 100    
Minimum Humidity 46    
Precipitation  
Precipitation 0.00 in - - ()
Sea Level Pressure  
Sea Level Pressure 30.19 in    
Wind  
Wind Speed 2 mph (ESE)    
Max Wind Speed 9 mph    
Max Gust Speed -    
Visibility 10 miles    
Events      
Averages and records for this station are not official NWS values.
T = Trace of Precipitation, MM = Missing Value Source: NWS Daily Summary

Daily Weather History Graph

Daily Weather History Graph

Search for Another Location

Airport or City:

Astronomy

Aug. 26, 2019 Rise Set
Actual Time 6:28 AM EDT 7:49 PM EDT
Civil Twilight 5:59 AM EDT 8:18 PM EDT
Nautical Twilight 5:25 AM EDT 8:52 PM EDT
Astronomical Twilight 4:49 AM EDT 9:28 PM EDT
Moon 1:50 AM EDT (8/26) 5:12 PM EDT (8/26)
Length of Visible Light 14h 18m
Length of Day
13h 21m
Waning Crescent, 19% of the Moon is Illuminated
Aug 26
Waning Crescent
Aug 30
New
Sep 5
First Quarter
Sep 14
Full
Sep 21
Last Quarter

Hourly Weather History & Observations

Time (EDT) Temp. Dew Point Humidity Pressure Visibility Wind Dir Wind Speed Gust Speed Precip Events Conditions
12:53 AM 55.0 °F 54.0 °F 96% 30.23 in 10.0 mi NNW 3.5 mph - N/A   Clear
1:53 AM 54.0 °F 53.1 °F 97% 30.23 in 10.0 mi Calm Calm - N/A   Clear
2:53 AM 53.1 °F 52.0 °F 96% 30.23 in 9.0 mi Calm Calm - N/A   Clear
3:53 AM 52.0 °F 51.1 °F 97% 30.23 in 9.0 mi Calm Calm - N/A   Clear
4:18 AM 53.1 °F 52.0 °F 96% 30.24 in 10.0 mi Calm Calm - N/A   Mostly Cloudy
4:53 AM 54.0 °F 53.1 °F 97% 30.24 in 10.0 mi Calm Calm - N/A   Mostly Cloudy
5:00 AM 53.1 °F 52.0 °F 96% 30.24 in 10.0 mi NNW 3.5 mph - N/A   Scattered Clouds
5:50 AM 53.6 °F 53.6 °F 100% 30.24 in 10.0 mi Calm Calm - N/A   Mostly Cloudy
5:53 AM 54.0 °F 53.1 °F 97% 30.24 in 10.0 mi Calm Calm - N/A   Mostly Cloudy
6:53 AM 54.0 °F 53.1 °F 97% 30.24 in 10.0 mi NW 3.5 mph - N/A   Mostly Cloudy
7:53 AM 57.0 °F 55.9 °F 96% 30.25 in 10.0 mi NW 3.5 mph - N/A   Overcast
8:50 AM 60.8 °F 57.2 °F 88% 30.25 in 10.0 mi NE 3.5 mph - N/A   Scattered Clouds
8:53 AM 61.0 °F 57.9 °F 90% 30.25 in 10.0 mi NE 3.5 mph - N/A   Scattered Clouds
9:53 AM 64.9 °F 57.0 °F 75% 30.24 in 10.0 mi East 4.6 mph - N/A   Clear
10:53 AM 68.0 °F 54.0 °F 61% 30.23 in 10.0 mi Calm Calm - N/A   Clear
11:53 AM 69.1 °F 53.1 °F 57% 30.22 in 10.0 mi Calm Calm - N/A   Clear
12:53 PM 72.0 °F 51.1 °F 48% 30.19 in 10.0 mi SE 3.5 mph - N/A   Clear
1:53 PM 72.0 °F 52.0 °F 49% 30.17 in 10.0 mi Calm Calm - N/A   Clear
2:53 PM 73.0 °F 52.0 °F 48% 30.15 in 10.0 mi Calm Calm - N/A   Clear
3:53 PM 75.9 °F 55.0 °F 48% 30.13 in 10.0 mi Variable 3.5 mph - N/A   Clear
4:53 PM 73.9 °F 52.0 °F 46% 30.11 in 10.0 mi SSE 9.2 mph - N/A   Clear
5:53 PM 73.9 °F 55.9 °F 53% 30.10 in 10.0 mi SSE 5.8 mph - N/A   Clear
6:53 PM 71.1 °F 53.1 °F 53% 30.11 in 10.0 mi South 6.9 mph - N/A   Clear
7:53 PM 64.9 °F 57.0 °F 75% 30.12 in 10.0 mi SSE 4.6 mph - N/A   Clear
8:53 PM 64.9 °F 57.0 °F 75% 30.12 in 10.0 mi SE 3.5 mph - N/A   Clear
9:53 PM 62.1 °F 57.9 °F 86% 30.13 in 10.0 mi Calm Calm - N/A   Clear
10:53 PM 60.1 °F 57.9 °F 93% 30.12 in 10.0 mi Calm Calm - N/A   Clear
11:53 PM 64.0 °F 57.0 °F 78% 30.13 in 10.0 mi South 3.5 mph - N/A   Clear